SVA712 OPKC-OERK

Flight info

Callsign SVA712
Flight time N/A
Altitude 38000
Route MELOM1G MELOM A454 TAPDO G652 TULBU M628 PEKEM DCT MEDPO DCT SITUK M321 NAGUB NAGUB1A
Aircraft A339/H-SADE1E2E3GHIJ3J5M1P2RWXY/LB2D1

Departure

Time 2026-05-07 14:51
Airport Jinnah International Airport (OPKC)

Arrival

Time N/A
Airport King Khalid International Airport (OERK)
Time Latitude Longitude Altitude Speed Heading
2026-05-07 14:32 24.90237 67.16582 100 ft 0 kts 163°
2026-05-07 14:41 24.90241 67.16581 102 ft 1 kts 163°
2026-05-07 14:41 24.90253 67.16577 99 ft 2 kts 163°
2026-05-07 14:42 24.90266 67.16573 98 ft 2 kts 162°
2026-05-07 14:42 24.90280 67.16568 98 ft 2 kts 155°
2026-05-07 14:42 24.90293 67.16562 98 ft 2 kts 134°
2026-05-07 14:42 24.90303 67.16550 98 ft 2 kts 112°
2026-05-07 14:43 24.90308 67.16536 98 ft 2 kts 97°
2026-05-07 14:43 24.90310 67.16520 97 ft 2 kts 84°
2026-05-07 14:43 24.90309 67.16505 97 ft 2 kts 71°
2026-05-07 14:43 24.90305 67.16492 97 ft 0 kts 72°
2026-05-07 14:46 24.90306 67.16498 97 ft 2 kts 72°
2026-05-07 14:46 24.90316 67.16531 100 ft 7 kts 72°
2026-05-07 14:46 24.90334 67.16593 99 ft 11 kts 72°
2026-05-07 14:47 24.90361 67.16680 102 ft 11 kts 65°
2026-05-07 14:47 24.90435 67.16707 102 ft 12 kts 11°
2026-05-07 14:47 24.90495 67.16783 104 ft 15 kts 66°
2026-05-07 14:47 24.90531 67.16911 104 ft 19 kts 74°
2026-05-07 14:48 24.90571 67.17068 104 ft 23 kts 74°
2026-05-07 14:48 24.90600 67.17185 105 ft 14 kts 75°
2026-05-07 14:48 24.90627 67.17291 104 ft 15 kts 75°
2026-05-07 14:48 24.90664 67.17401 106 ft 16 kts 58°
2026-05-07 14:49 24.90752 67.17470 107 ft 16 kts 27°
2026-05-07 14:49 24.90849 67.17473 106 ft 11 kts 338°
2026-05-07 14:49 24.90859 67.17417 106 ft 7 kts 261°
2026-05-07 14:49 24.90849 67.17366 105 ft 7 kts 256°
2026-05-07 14:50 24.90847 67.17358 106 ft 0 kts 256°
2026-05-07 14:50 24.90773 67.17065 106 ft 84 kts 253°
2026-05-07 14:50 24.90543 67.16162 100 ft 157 kts 254°
2026-05-07 14:50 24.90223 67.14870 537 ft 183 kts 253°
2026-05-07 14:51 24.89707 67.13574 1287 ft 185 kts 231°
2026-05-07 14:51 24.88856 67.12569 2333 ft 179 kts 227°
2026-05-07 14:51 24.87944 67.11532 2930 ft 198 kts 228°
2026-05-07 14:51 24.86965 67.10381 3317 ft 215 kts 228°
2026-05-07 14:52 24.85898 67.09111 3517 ft 235 kts 228°
2026-05-07 14:52 24.84768 67.07768 3970 ft 241 kts 228°
2026-05-07 14:52 24.83614 67.06393 4379 ft 248 kts 228°
2026-05-07 14:52 24.82432 67.04983 4825 ft 253 kts 228°
2026-05-07 14:53 24.81243 67.03538 5353 ft 257 kts 231°
2026-05-07 14:53 24.80417 67.01763 5506 ft 274 kts 256°
2026-05-07 14:53 24.80175 66.99653 5893 ft 281 kts 267°
2026-05-07 14:53 24.80125 66.97486 6365 ft 285 kts 270°
2026-05-07 14:54 24.80096 66.95294 6894 ft 286 kts 270°
2026-05-07 14:54 24.80036 66.93089 7404 ft 289 kts 270°
2026-05-07 14:54 24.79943 66.90865 7916 ft 292 kts 269°
2026-05-07 14:54 24.79829 66.88629 8458 ft 294 kts 269°
2026-05-07 14:55 24.79706 66.86369 9012 ft 297 kts 270°
2026-05-07 14:55 24.79583 66.84098 9601 ft 298 kts 270°
2026-05-07 14:55 24.79459 66.81804 10003 ft 306 kts 270°
2026-05-07 14:55 24.79333 66.79407 10146 ft 322 kts 270°
2026-05-07 14:56 24.79201 66.76883 10293 ft 338 kts 270°
2026-05-07 14:56 24.79060 66.74245 10525 ft 349 kts 270°
2026-05-07 14:56 24.78912 66.71571 11014 ft 351 kts 270°
2026-05-07 14:56 24.78762 66.68880 11524 ft 353 kts 270°
2026-05-07 14:57 24.78612 66.66173 11988 ft 356 kts 270°
2026-05-07 14:57 24.78462 66.63483 12516 ft 358 kts 271°
2026-05-07 14:57 24.78310 66.60740 13006 ft 360 kts 271°
2026-05-07 14:57 24.78158 66.57978 13522 ft 363 kts 271°
2026-05-07 14:58 24.78004 66.55193 13986 ft 365 kts 271°
2026-05-07 14:58 24.77849 66.52394 14434 ft 368 kts 271°
2026-05-07 14:58 24.77693 66.49574 14898 ft 370 kts 271°
2026-05-07 14:58 24.77534 66.46733 15338 ft 373 kts 270°
2026-05-07 14:59 24.77374 66.43868 15801 ft 376 kts 270°
2026-05-07 14:59 24.77212 66.40991 16234 ft 379 kts 270°
2026-05-07 14:59 24.77047 66.38085 16684 ft 381 kts 270°
2026-05-07 14:59 24.76882 66.35168 17120 ft 384 kts 270°
2026-05-07 15:00 24.76715 66.32223 17562 ft 387 kts 270°
2026-05-07 15:00 24.76548 66.29300 18000 ft 389 kts 270°
2026-05-07 15:00 24.76375 66.26274 18395 ft 392 kts 270°
2026-05-07 15:00 24.76205 66.23320 18809 ft 393 kts 270°
2026-05-07 15:01 24.76029 66.20272 19221 ft 395 kts 270°
2026-05-07 15:01 24.75857 66.17286 19613 ft 397 kts 270°
2026-05-07 15:01 24.75681 66.14247 20015 ft 399 kts 270°
2026-05-07 15:01 24.75503 66.11197 20409 ft 401 kts 270°
2026-05-07 15:02 24.75324 66.08127 20814 ft 403 kts 270°
2026-05-07 15:02 24.75143 66.05042 21204 ft 405 kts 270°
2026-05-07 15:02 24.74960 66.01933 21609 ft 407 kts 270°
2026-05-07 15:02 24.74777 65.98817 21995 ft 409 kts 270°
2026-05-07 15:03 24.74591 65.95683 22377 ft 412 kts 270°
2026-05-07 15:03 24.74404 65.92534 22778 ft 414 kts 270°
2026-05-07 15:03 24.74215 65.89367 23157 ft 416 kts 270°
2026-05-07 15:03 24.74025 65.86181 23514 ft 418 kts 270°
2026-05-07 15:04 24.73833 65.82982 23875 ft 419 kts 270°
2026-05-07 15:04 24.73640 65.79789 24244 ft 419 kts 270°
2026-05-07 15:04 24.73446 65.76578 24594 ft 421 kts 270°
2026-05-07 15:04 24.73252 65.73365 24946 ft 422 kts 269°
2026-05-07 15:05 24.73055 65.70136 25299 ft 423 kts 269°
2026-05-07 15:05 24.72864 65.67006 25647 ft 424 kts 269°
2026-05-07 15:05 24.72666 65.63759 25988 ft 426 kts 269°
2026-05-07 15:05 24.72466 65.60504 26336 ft 427 kts 269°
2026-05-07 15:06 24.72264 65.57239 26685 ft 428 kts 269°
2026-05-07 15:06 24.72062 65.53972 27022 ft 429 kts 269°
2026-05-07 15:06 24.71858 65.50687 27363 ft 431 kts 269°
2026-05-07 15:06 24.71653 65.47396 27689 ft 432 kts 269°
2026-05-07 15:07 24.71446 65.44089 28019 ft 434 kts 269°
2026-05-07 15:07 24.71238 65.40771 28356 ft 435 kts 268°
2026-05-07 15:07 24.71028 65.37448 28669 ft 437 kts 268°
2026-05-07 15:07 24.70817 65.34110 28995 ft 438 kts 268°
2026-05-07 15:08 24.70604 65.30759 29310 ft 440 kts 268°
2026-05-07 15:08 24.70390 65.27396 29621 ft 441 kts 268°
2026-05-07 15:08 24.70177 65.24065 29915 ft 443 kts 268°
2026-05-07 15:08 24.69959 65.20675 30197 ft 445 kts 268°
2026-05-07 15:09 24.69739 65.17272 30498 ft 446 kts 268°
2026-05-07 15:09 24.69519 65.13866 30797 ft 448 kts 268°
2026-05-07 15:09 24.69297 65.10444 31086 ft 449 kts 268°
2026-05-07 15:09 24.69073 65.07006 31374 ft 451 kts 268°
2026-05-07 15:10 24.68848 65.03569 31658 ft 452 kts 268°
2026-05-07 15:10 24.68621 65.00114 31937 ft 454 kts 268°
2026-05-07 15:10 24.68470 64.97817 32120 ft 455 kts 268°
2026-05-07 15:10 24.68241 64.94348 32347 ft 456 kts 268°
2026-05-07 15:11 24.68010 64.90867 32560 ft 457 kts 268°
2026-05-07 15:11 24.67778 64.87377 32753 ft 458 kts 268°
2026-05-07 15:11 24.67546 64.83892 32928 ft 459 kts 268°
2026-05-07 15:11 24.67310 64.80375 33080 ft 460 kts 268°
2026-05-07 15:12 24.67074 64.76861 33218 ft 461 kts 268°
2026-05-07 15:12 24.66837 64.73344 33394 ft 461 kts 268°
2026-05-07 15:12 24.66599 64.69839 33587 ft 460 kts 268°
2026-05-07 15:12 24.66361 64.66331 33771 ft 459 kts 268°
2026-05-07 15:13 24.66123 64.62833 33933 ft 458 kts 268°
2026-05-07 15:13 24.65884 64.59341 34083 ft 458 kts 268°
2026-05-07 15:13 24.65645 64.55852 34230 ft 458 kts 268°
2026-05-07 15:13 24.65404 64.52361 34371 ft 457 kts 268°
2026-05-07 15:14 24.65163 64.48874 34521 ft 457 kts 267°
2026-05-07 15:14 24.64921 64.45379 34665 ft 457 kts 267°
2026-05-07 15:14 24.64680 64.41902 34815 ft 457 kts 267°
2026-05-07 15:14 24.64437 64.38421 34959 ft 456 kts 267°
2026-05-07 15:15 24.64193 64.34946 35104 ft 456 kts 267°
2026-05-07 15:15 24.63950 64.31474 35266 ft 456 kts 267°
2026-05-07 15:15 24.63708 64.28041 35419 ft 455 kts 267°
2026-05-07 15:15 24.63463 64.24575 35574 ft 455 kts 267°
2026-05-07 15:16 24.63217 64.21111 35733 ft 455 kts 267°
2026-05-07 15:16 24.62971 64.17645 35899 ft 454 kts 267°
2026-05-07 15:16 24.62723 64.14180 36065 ft 454 kts 267°
2026-05-07 15:16 24.62476 64.10724 36234 ft 454 kts 267°
2026-05-07 15:17 24.62227 64.07265 36401 ft 454 kts 266°
2026-05-07 15:17 24.61978 64.03809 36565 ft 453 kts 266°
2026-05-07 15:17 24.61729 64.00358 36723 ft 453 kts 266°
2026-05-07 15:17 24.61479 63.96913 36896 ft 453 kts 266°
2026-05-07 15:18 24.61227 63.93458 37059 ft 452 kts 266°
2026-05-07 15:18 24.60976 63.90017 37216 ft 452 kts 266°
2026-05-07 15:18 24.60724 63.86579 37382 ft 452 kts 266°
2026-05-07 15:18 24.60471 63.83134 37529 ft 451 kts 266°
2026-05-07 15:19 24.60218 63.79699 37687 ft 451 kts 266°
2026-05-07 15:19 24.59963 63.76254 37743 ft 451 kts 266°
2026-05-07 15:19 24.59457 63.69437 37741 ft 450 kts 266°
2026-05-07 15:20 24.58944 63.62573 37738 ft 450 kts 266°
2026-05-07 15:20 24.58427 63.55705 37737 ft 450 kts 266°
2026-05-07 15:21 24.57908 63.48843 37742 ft 450 kts 266°
2026-05-07 15:21 24.57386 63.41982 37736 ft 450 kts 266°
2026-05-07 15:22 24.56865 63.35165 37731 ft 451 kts 266°
2026-05-07 15:22 24.56336 63.28305 37732 ft 451 kts 266°
2026-05-07 15:23 24.55804 63.21445 37728 ft 451 kts 266°
2026-05-07 15:23 24.55269 63.14578 37728 ft 451 kts 266°
2026-05-07 15:24 24.54910 63.09983 37731 ft 451 kts 266°
2026-05-07 15:24 24.54731 63.07711 37733 ft 451 kts 266°
2026-05-07 15:25 24.54639 63.06546 37731 ft 451 kts 266°
2026-05-07 15:25 24.54281 63.01998 37730 ft 452 kts 266°